Date String (YYYY-MM-DD hh:mm:ss) UTC,Instrument flags,Ambient pressure (hPa),Sample flow (lpm),Bypass flow (lpm),Sample temperature (°C),Ambient temperature (°C),ASC tube jacket temperature (°C),LED temperature (°C),Box temperature (°C),Sample RH (%),Span deviation,Mass concentration (μg/m³),Mass concentration (μg/m³),Mass concentration (μg/m³)
DateTimeUTC,F1_M11,P_M11,Q1_M11,Q2_M11,T1_M11,T2_M11,T3_M11,T4_M11,T5_M11,U1_M11,ZSPAN_M11,X0_M11,X2_M11,X1_M11
2021-11-07 17:00:00,,0825.4,5.00,0.00,30.0,27.3,00.0,39.2,31.5,07.1,0000.0,0006.22,0001.89,0001.36
2021-11-07 17:01:00,,0825.4,5.00,0.00,30.0,27.7,00.0,39.1,31.6,07.0,0000.0,0006.26,0001.89,0001.34
2021-11-07 17:02:00,,0825.4,5.00,0.00,30.0,28.1,00.0,39.1,31.6,07.2,0000.0,0006.44,0001.93,0001.34
2021-11-07 17:03:00,,0825.4,5.00,0.00,30.0,28.3,00.0,39.1,31.7,07.1,0000.0,0006.69,0002.00,0001.34
2021-11-07 17:04:00,,0825.4,4.99,0.00,30.0,28.6,00.0,39.1,31.8,07.2,0000.0,0006.88,0002.01,0001.34
2021-11-07 17:05:00,,0825.4,5.00,0.00,30.1,28.7,00.0,39.1,31.8,07.2,0000.0,0006.45,0002.00,0001.33
2021-11-07 17:06:00,,0825.3,5.01,0.00,30.1,28.9,00.0,39.1,31.9,07.0,0000.0,0006.08,0001.97,0001.34
2021-11-07 17:07:00,,0825.3,5.00,0.00,30.1,29.0,00.0,39.1,31.9,06.9,0000.0,0007.36,0001.99,0001.33
2021-11-07 17:08:00,,0825.4,4.99,0.00,30.2,29.1,00.0,39.1,32.0,06.9,0000.0,0007.30,0001.98,0001.33
2021-11-07 17:09:00,,0825.3,5.00,0.00,30.2,29.2,00.0,39.1,32.0,06.7,0000.0,0007.08,0001.93,0001.34
2021-11-07 17:10:00,,0825.3,5.01,0.00,30.2,29.3,00.0,39.1,32.0,07.0,0000.0,0006.79,0001.88,0001.35
2021-11-07 17:11:00,,0825.3,4.99,0.00,30.3,29.4,00.0,39.1,32.1,07.0,0000.0,0006.55,0001.82,0001.36
2021-11-07 17:12:00,,0825.3,5.01,0.00,30.3,29.5,00.0,39.2,32.1,06.7,0000.0,0006.52,0001.82,0001.38
2021-11-07 17:13:00,,0825.4,4.99,0.00,30.3,29.2,00.0,39.2,32.1,06.5,0000.0,0006.42,0001.80,0001.39
2021-11-07 17:14:00,,0825.3,5.00,0.00,30.3,27.3,00.0,39.2,31.7,06.3,0000.0,0006.29,0001.75,0001.38
2021-11-07 17:15:00,,0825.3,5.01,0.00,30.1,26.2,00.0,39.1,31.5,06.5,0000.0,0006.22,0001.73,0001.38
2021-11-07 17:16:00,,0825.3,4.99,0.00,30.1,26.6,00.0,39.1,31.5,06.6,0000.0,0007.13,0001.78,0001.40
2021-11-07 17:17:00,,0825.3,5.00,0.00,30.0,27.0,00.0,39.1,31.5,06.7,0000.0,0007.19,0001.89,0001.42
2021-11-07 17:18:00,,0825.3,5.01,0.00,29.9,27.5,00.0,39.0,31.5,06.4,0000.0,0005.39,0001.89,0001.41
2021-11-07 17:19:00,,0825.3,4.99,0.00,29.9,27.8,00.0,39.0,31.5,06.5,0000.0,0005.32,0001.87,0001.41
2021-11-07 17:20:00,,0825.3,5.00,0.00,30.0,28.2,00.0,39.0,31.6,06.5,0000.0,0005.58,0001.91,0001.41
2021-11-07 17:21:00,,0825.3,5.01,0.00,30.0,28.4,00.0,39.0,31.7,06.6,0000.0,0006.54,0001.93,0001.40
2021-11-07 17:22:00,,0825.3,5.00,0.00,30.0,28.6,00.0,39.0,31.8,06.7,0000.0,0006.76,0001.98,0001.40
2021-11-07 17:23:00,,0825.3,5.01,0.00,30.0,28.8,00.0,39.0,31.8,06.4,0000.0,0007.46,0002.00,0001.41
2021-11-07 17:24:00,,0825.3,4.98,0.00,30.1,29.0,00.0,39.0,31.9,06.2,0000.0,0007.49,0001.98,0001.39
2021-11-07 17:25:00,,0825.3,5.00,0.00,30.1,29.1,00.0,39.0,31.9,06.2,0000.0,0007.53,0001.96,0001.38
2021-11-07 17:26:00,,0825.3,5.00,0.00,30.1,29.2,00.0,39.0,32.0,06.0,0000.0,0007.47,0001.92,0001.36
2021-11-07 17:27:00,,0825.2,4.99,0.00,30.2,29.3,00.0,39.0,32.0,06.1,0000.0,0006.28,0001.90,0001.34
2021-11-07 17:28:00,,0825.2,5.00,0.00,30.2,29.4,00.0,39.1,32.0,06.2,0000.0,0005.96,0001.81,0001.32
2021-11-07 17:29:00,,0825.1,5.02,0.00,30.2,29.1,00.0,39.1,32.0,06.2,0000.0,0005.55,0001.78,0001.32
2021-11-07 17:30:00,,0825.1,5.00,0.00,30.2,27.2,00.0,39.1,31.7,06.2,0000.0,0005.45,0001.79,0001.33
2021-11-07 17:31:00,,0825.1,5.00,0.00,30.0,26.1,00.0,39.1,31.4,06.4,0000.0,0005.28,0001.78,0001.33
2021-11-07 17:32:00,,0825.1,4.99,0.00,30.0,26.5,00.0,39.0,31.4,06.3,0000.0,0004.19,0001.76,0001.33
2021-11-07 17:33:00,,0825.1,5.00,0.00,29.9,26.9,00.0,39.0,31.4,06.4,0000.0,0004.15,0001.78,0001.33
2021-11-07 17:34:00,,0825.1,5.00,0.00,29.9,27.4,00.0,38.9,31.4,06.5,0000.0,0003.45,0001.78,0001.33
2021-11-07 17:35:00,,0825.0,4.99,0.00,29.9,27.8,00.0,38.9,31.5,06.6,0000.0,0003.86,0001.80,0001.33
2021-11-07 17:36:00,,0825.0,5.00,0.00,29.9,28.1,00.0,38.9,31.6,06.6,0000.0,0004.01,0001.85,0001.33
2021-11-07 17:37:00,,0825.1,4.99,0.00,29.9,28.4,00.0,38.9,31.7,06.5,0000.0,0004.17,0001.91,0001.33
2021-11-07 17:38:00,,0825.1,5.01,0.00,29.9,28.6,00.0,38.9,31.7,06.6,0000.0,0004.14,0001.91,0001.33
2021-11-07 17:39:00,,0825.1,4.99,0.00,30.0,28.8,00.0,38.9,31.8,06.5,0000.0,0004.19,0001.94,0001.35
2021-11-07 17:40:00,,0825.1,5.01,0.00,30.0,28.9,00.0,38.9,31.8,06.5,0000.0,0004.20,0001.95,0001.35
2021-11-07 17:41:00,,0825.1,5.00,0.00,30.0,29.0,00.0,38.9,31.9,06.7,0000.0,0004.89,0001.94,0001.36
2021-11-07 17:42:00,,0825.1,5.00,0.00,30.1,29.1,00.0,39.0,31.9,06.6,0000.0,0004.89,0001.94,0001.36
2021-11-07 17:43:00,,0825.0,5.02,0.00,30.1,29.2,00.0,39.0,32.0,06.5,0000.0,0004.93,0001.95,0001.36
2021-11-07 17:44:00,,0825.0,5.00,0.00,30.2,29.3,00.0,39.0,32.0,06.5,0000.0,0004.86,0001.92,0001.37
2021-11-07 17:45:00,,0824.9,4.99,0.00,30.2,29.1,00.0,39.0,32.0,06.5,0000.0,0004.79,0001.92,0001.38
2021-11-07 17:46:00,,0824.9,5.01,0.00,30.1,27.3,00.0,39.0,31.7,06.6,0000.0,0004.21,0001.90,0001.38
2021-11-07 17:47:00,,0824.9,4.99,0.00,30.0,26.2,00.0,39.0,31.5,06.5,0000.0,0003.96,0001.90,0001.39
2021-11-07 17:48:00,,0824.9,5.00,0.00,29.9,26.5,00.0,39.0,31.5,06.5,0000.0,0004.11,0001.88,0001.40
2021-11-07 17:49:00,,0824.9,5.01,0.00,29.9,26.9,00.0,38.9,31.5,06.4,0000.0,0004.03,0001.85,0001.40
2021-11-07 17:50:00,,0824.9,4.99,0.00,29.8,27.4,00.0,38.9,31.4,06.3,0000.0,0003.89,0001.80,0001.39
2021-11-07 17:51:00,,0824.9,4.99,0.00,29.8,27.8,00.0,38.9,31.5,06.4,0000.0,0003.84,0001.76,0001.37
2021-11-07 17:52:00,,0824.9,5.01,0.00,29.9,28.1,00.0,38.9,31.5,06.2,0000.0,0003.14,0001.76,0001.35
2021-11-07 17:53:00,,0824.9,5.00,0.00,29.9,28.3,00.0,38.9,31.6,06.1,0000.0,0003.04,0001.75,0001.34
2021-11-07 17:54:00,,0824.9,4.99,0.00,29.9,28.5,00.0,38.9,31.7,06.1,0000.0,0002.86,0001.73,0001.33
2021-11-07 17:55:00,,0824.9,5.01,0.00,29.9,28.7,00.0,38.9,31.7,06.1,0000.0,0002.84,0001.72,0001.32
2021-11-07 17:56:00,,0824.9,5.01,0.00,30.0,28.9,00.0,38.9,31.8,06.1,0000.0,0002.75,0001.69,0001.31
2021-11-07 17:57:00,,0824.9,5.00,0.00,30.0,29.0,00.0,38.9,31.8,06.1,0000.0,0002.70,0001.67,0001.31
2021-11-07 17:58:00,,0824.9,5.00,0.00,30.0,29.1,00.0,38.9,31.9,06.1,0000.0,0003.27,0001.64,0001.29
2021-11-07 17:59:00,,0824.9,4.99,0.00,30.1,29.2,00.0,38.9,31.9,06.0,0000.0,0003.24,0001.59,0001.28
